Vorticity
nan nan nan nan nan nan nan nan nan nan nan nan nan nan nan nan nan nan nan nan nan nan nan nan nan nan nan nan nan nan nan nan nan nan nan nan nan nan nan nan nan nan nan nan nan nan nan nan nan nan nan nan nan nan nan nan nan nan nan nan nan nan nan nan nan nan nan nan nan
nan 8 7 7 7 6 7 8 8 8 9 9 11 10 10 10 10 10 10 9 10 12 13 14 15 16 16 14 10 9 9 10 11 10 10 11 12 12 11 11 13 13 12 8 5 4 6 6 5 6 7 8 9 10 10 11 11 11 11 9 6 7 8 7 7 7 6 5 nan
nan 9 8 7 6 5 6 7 8 9 7 6 8 11 10 10 11 12 12 12 12 12 12 13 13 14 15 12 9 10 11 12 10 8 8 9 10 10 10 12 12 10 8 5 5 6 8 6 4 5 7 9 10 9 8 9 10 10 9 5 5 7 8 7 7 6 5 6 nan
nan 8 8 9 8 5 2 5 9 8 5 5 7 10 10 10 10 12 14 14 11 10 11 13 13 13 13 11 11 12 14 13 10 8 7 10 10 10 9 10 9 7 7 7 7 7 7 4 3 6 9 11 8 7 7 9 10 8 7 6 6 8 9 8 7 7 7 7 nan
nan 8 7 11 10 5 3 6 8 6 5 7 9 9 9 8 10 12 14 13 10 11 14 15 14 13 13 13 12 12 12 10 6 6 8 10 9 9 9 8 6 6 7 8 7 5 4 2 3 7 10 9 7 9 10 10 8 7 7 8 9 9 9 8 8 8 9 9 nan
nan 9 7 10 10 6 4 8 10 7 6 9 11 10 8 8 10 12 14 13 13 14 15 12 11 11 12 12 10 8 7 6 7 8 10 8 8 9 9 7 6 5 7 8 7 5 2 0 3 8 9 9 9 11 12 9 6 7 7 8 9 9 10 10 9 9 11 12 nan
nan 10 8 10 9 6 6 8 10 10 10 12 14 11 9 10 12 14 13 12 12 12 10 8 10 11 11 9 7 6 7 8 10 10 8 7 10 9 7 6 6 6 8 8 6 4 3 1 3 8 9 8 9 11 10 8 8 8 8 8 8 9 11 10 9 11 12 12 nan
nan 12 10 10 10 9 8 8 10 11 11 12 14 13 12 12 13 12 11 11 11 10 9 12 15 13 11 9 8 8 8 9 9 8 7 10 11 8 6 6 6 7 7 6 6 6 4 2 5 9 8 6 8 11 12 11 10 9 8 7 8 9 11 10 11 12 13 10 nan
nan 13 12 11 11 11 11 12 12 12 12 13 15 14 13 13 11 9 8 8 10 10 11 15 16 13 11 9 8 7 7 7 8 8 8 10 10 7 5 5 7 6 6 7 8 8 3 2 7 9 8 8 11 13 14 12 11 9 7 5 8 9 11 11 13 13 12 9 nan
nan 11 11 11 12 13 13 14 14 14 14 14 14 14 13 12 9 7 7 9 12 12 13 15 14 11 9 7 6 6 7 7 8 9 8 9 9 7 4 7 9 7 7 8 9 7 2 3 9 10 10 11 14 14 13 12 10 9 8 7 10 10 9 10 12 12 11 10 nan
nan 11 11 13 15 15 13 12 12 13 13 13 13 12 11 10 9 9 10 13 15 14 13 13 12 9 7 5 7 8 7 8 10 10 9 9 8 7 7 9 10 9 8 8 7 4 3 6 11 12 11 11 12 11 11 11 10 9 9 11 11 9 6 7 9 10 10 10 nan
nan 12 12 15 16 15 13 10 10 12 13 12 11 10 10 10 11 12 13 14 13 11 10 11 10 8 6 7 9 8 8 10 10 10 9 9 8 9 9 11 11 10 9 7 4 4 7 11 12 12 11 9 8 10 11 11 9 8 8 10 9 7 6 6 6 9 10 11 nan
nan 12 13 14 14 13 11 9 10 12 13 12 10 9 10 12 13 12 12 11 9 8 10 10 9 8 8 11 11 10 10 11 10 8 9 9 9 10 10 10 11 10 7 5 6 9 12 14 13 10 9 8 9 11 11 10 8 7 7 8 8 8 7 6 6 8 9 11 nan
nan 13 13 12 11 9 9 8 9 11 13 11 9 9 10 12 11 10 10 10 9 8 9 8 7 9 11 13 12 11 11 11 10 9 9 10 10 10 10 11 11 8 5 6 10 13 14 14 12 10 9 8 10 10 10 8 7 7 7 7 7 7 7 7 7 8 8 9 nan
nan 12 11 10 9 9 9 8 8 11 12 10 9 10 10 10 10 10 11 11 9 7 8 8 8 11 13 13 12 11 10 10 11 10 10 11 11 11 10 11 9 6 6 9 12 14 14 13 11 9 9 8 8 8 8 7 8 8 8 8 8 7 7 7 8 8 8 7 nan
nan 11 10 10 10 10 10 8 8 10 11 10 10 10 9 10 10 11 12 9 7 8 11 10 8 10 13 13 11 10 9 10 11 10 10 11 12 11 11 10 8 7 8 11 12 12 12 10 9 9 8 7 6 6 7 7 8 9 9 9 10 10 10 9 9 9 8 7 nan
nan 11 12 13 12 11 10 9 10 12 12 12 11 9 9 10 11 12 12 9 9 12 13 10 8 10 12 12 10 8 8 9 10 11 11 12 12 11 11 10 8 9 10 10 10 10 9 8 8 8 7 6 6 7 7 7 8 9 9 10 11 11 11 11 10 10 9 8 nan
nan 12 13 13 11 10 11 12 13 13 13 11 9 9 10 12 13 12 12 11 13 14 12 8 8 10 11 10 9 9 10 11 11 11 12 12 11 10 10 10 10 10 10 9 9 8 7 6 7 7 7 7 7 8 8 8 9 9 10 10 11 11 11 12 11 11 10 9 nan
nan 12 13 12 11 10 11 12 13 12 11 9 9 10 12 13 13 12 12 13 14 13 10 7 7 9 10 9 9 10 12 12 13 12 12 11 10 10 10 10 10 10 9 9 8 6 5 5 6 7 8 8 9 9 10 10 10 11 10 10 10 11 11 11 11 11 11 10 nan
nan 11 11 11 10 10 11 12 12 11 10 10 11 11 12 12 12 12 12 13 13 11 9 7 8 9 10 10 10 10 10 12 14 12 10 10 11 10 10 10 9 9 8 7 7 6 5 6 7 8 9 10 10 10 10 10 10 10 10 9 9 10 10 10 10 10 10 10 nan
nan 10 11 11 11 11 11 12 12 11 10 11 11 11 10 11 11 12 11 12 11 10 9 9 10 10 10 10 9 9 9 12 14 11 10 10 10 9 9 8 8 8 7 7 7 7 7 8 9 10 10 10 9 9 9 8 9 9 9 9 10 9 10 10 10 10 10 10 nan
nan 11 11 11 11 11 12 12 12 11 11 11 11 10 10 10 11 11 11 10 10 10 10 10 11 11 10 10 10 9 9 12 13 11 10 10 10 9 8 8 8 8 7 6 7 8 8 10 11 10 10 9 9 9 8 8 8 8 8 9 9 9 9 9 9 9 9 10 nan
nan 11 11 10 11 12 12 12 11 11 11 11 10 10 10 10 10 10 10 10 10 10 10 10 11 12 12 11 11 11 11 12 13 12 12 11 10 10 9 8 8 6 5 5 7 8 9 9 9 9 8 9 9 8 8 9 8 8 8 8 8 8 8 9 9 9 9 10 nan
nan 11 10 10 11 12 11 11 11 11 11 11 10 10 10 10 9 9 10 11 11 11 10 11 13 12 12 11 11 11 12 12 12 11 11 11 10 9 8 7 6 5 5 9 14 14 12 10 9 7 7 8 8 8 9 10 10 9 8 7 7 7 8 8 9 9 9 9 nan
nan 11 11 12 12 12 11 11 11 11 10 10 10 10 10 10 9 10 10 11 11 11 11 12 11 10 10 10 11 11 11 10 10 9 8 8 9 8 7 6 6 7 10 19 22 18 14 13 12 11 9 8 8 8 8 8 9 9 8 7 7 7 7 7 7 7 7 8 nan
nan 11 11 12 12 12 12 11 11 10 10 10 11 10 10 9 10 11 11 11 11 11 10 9 9 9 9 10 12 11 10 9 9 9 8 8 8 8 8 8 8 10 17 25 21 15 13 14 14 14 11 9 8 7 6 6 8 8 8 7 7 7 7 7 6 6 6 7 nan
nan 11 11 12 12 12 11 11 11 11 10 11 11 11 11 11 12 12 11 11 10 9 7 7 8 8 7 8 11 10 9 10 10 9 9 9 8 7 7 7 9 15 25 27 17 11 9 10 10 11 11 10 9 8 8 7 7 7 7 7 7 8 8 8 6 6 7 8 nan
nan 11 11 12 12 11 11 11 11 11 11 11 11 11 12 13 13 12 11 10 8 6 5 6 6 5 6 9 10 10 10 10 9 9 9 9 8 7 6 7 13 21 29 24 11 7 6 6 6 7 9 10 8 7 7 7 6 6 6 7 8 8 9 8 8 8 8 9 nan
nan 12 11 12 11 11 11 11 11 11 11 11 12 13 13 12 12 11 10 9 7 6 6 6 8 10 12 13 10 9 8 8 9 10 10 10 8 7 8 10 16 23 25 16 7 6 5 5 5 6 8 9 8 8 7 7 7 7 8 8 9 9 9 10 10 10 10 10 nan
nan 12 12 12 11 11 11 12 12 12 11 11 13 12 11 11 10 10 9 8 7 8 11 13 15 16 16 13 10 9 8 8 10 11 11 10 8 8 10 13 17 20 19 11 5 6 6 6 7 8 9 9 9 9 9 9 10 10 10 10 11 11 11 11 11 10 10 9 nan
nan 14 13 12 11 12 12 13 13 13 13 14 13 11 10 10 9 9 8 8 10 12 15 17 18 16 14 12 12 11 10 10 10 10 10 9 9 11 13 15 17 17 17 11 6 7 7 8 8 8 8 8 7 9 10 11 11 11 11 12 12 12 11 10 9 9 9 9 nan
nan 14 13 13 12 12 13 13 13 13 13 13 12 10 10 9 9 10 10 11 12 13 14 14 13 12 11 11 12 11 11 10 11 11 12 11 12 13 13 13 13 15 16 11 7 8 7 7 7 7 7 7 7 9 11 11 10 10 11 11 11 10 10 10 9 8 8 8 nan
nan 14 13 13 12 12 12 12 12 12 12 11 11 11 10 10 11 12 12 12 11 11 10 10 9 9 9 9 9 9 9 10 11 12 12 12 12 11 9 8 10 15 17 11 7 7 6 6 6 6 6 5 5 7 9 10 9 10 10 10 9 9 9 10 10 9 9 8 nan
nan 13 13 12 12 11 12 12 12 12 11 11 11 11 11 12 12 12 12 12 11 10 9 9 8 8 8 8 8 9 9 10 11 10 10 9 9 9 8 8 13 19 16 10 6 6 5 5 5 6 5 2 3 7 9 10 10 10 10 9 9 8 8 9 10 10 10 9 nan
nan 12 12 11 11 11 12 11 12 11 11 11 11 11 11 11 11 11 12 13 12 11 10 10 9 9 9 10 10 10 10 10 9 9 9 9 9 8 9 12 18 20 14 7 5 5 4 5 5 5 3 -0 3 7 9 9 8 9 9 8 7 7 8 9 9 10 10 10 nan
nan 11 11 11 11 11 11 11 11 10 10 10 10 10 10 10 10 10 11 11 10 10 11 10 10 10 10 10 10 9 9 8 8 8 8 8 8 8 9 11 15 15 10 6 6 5 5 5 6 4 1 -0 4 8 9 8 7 7 7 7 6 6 7 8 9 10 10 10 nan
nan 11 10 10 10 10 10 10 10 10 9 9 9 9 9 9 9 9 10 9 8 9 10 10 10 9 9 9 9 10 10 9 8 8 8 8 8 8 8 10 12 12 10 8 6 6 5 5 5 3 0 2 7 9 9 7 7 6 6 6 5 6 7 8 9 9 10 11 nan
nan 10 10 10 10 10 10 10 10 9 9 9 9 8 8 7 8 9 10 10 9 9 9 9 9 9 9 10 10 10 11 10 10 8 7 6 7 8 9 8 9 11 12 10 7 5 5 6 6 5 3 5 8 8 7 7 8 7 7 6 7 7 9 9 9 9 9 8 nan
nan 11 11 10 10 10 10 10 10 9 8 8 8 9 9 9 10 11 12 11 10 9 9 9 10 10 10 10 9 9 9 9 9 8 7 7 9 10 9 7 9 12 14 11 7 6 5 6 7 7 4 5 6 7 7 8 8 8 7 7 8 9 10 10 10 9 8 5 nan
nan 11 11 10 9 9 9 9 9 8 8 8 9 9 9 10 11 12 11 10 10 9 9 9 9 9 10 8 7 7 7 8 8 9 9 10 10 10 7 6 9 11 12 10 7 6 6 7 8 6 2 2 6 8 8 9 8 8 7 7 8 8 9 9 10 9 9 6 nan
nan nan nan nan nan nan nan nan nan nan nan nan nan nan nan nan nan nan nan nan nan nan nan nan nan nan nan nan nan nan nan nan nan nan nan nan nan nan nan nan nan nan nan nan nan nan nan nan nan nan nan nan nan nan nan nan nan nan nan nan nan nan nan nan nan nan nan nan nan
CAPE
16 15 15 8 0 0 nan nan nan nan nan nan nan nan nan nan nan nan nan nan nan nan nan nan nan nan nan nan nan nan nan nan nan nan nan nan nan nan nan nan nan nan nan nan nan nan nan nan nan nan nan nan nan nan nan nan nan nan nan nan nan nan nan nan nan nan nan nan nan
7 7 7 6 2 2 nan nan nan nan nan nan nan nan nan nan nan nan nan nan nan nan nan nan nan nan nan nan nan nan nan nan nan nan nan nan nan nan nan nan nan nan nan nan nan nan nan nan nan nan nan nan nan nan nan nan nan nan nan nan nan nan nan nan nan nan nan nan nan
6 4 4 2 2 2 1 1 nan nan nan nan nan nan nan nan nan nan nan nan nan nan nan nan nan nan nan nan nan nan nan nan nan nan nan nan nan nan nan nan nan nan nan nan nan nan nan nan nan nan nan nan nan nan nan nan nan nan nan nan nan nan nan nan nan nan nan nan nan
1 1 1 0 nan nan nan 7 nan nan nan nan nan nan nan nan nan nan nan nan nan nan nan nan nan nan nan nan nan nan nan nan nan nan nan nan nan nan nan nan nan nan nan nan nan nan nan nan nan nan nan nan nan nan nan nan nan nan nan nan nan nan nan nan nan nan nan nan nan
0 6 6 3 nan nan 0 7 nan nan nan nan nan nan nan nan nan nan nan nan nan nan nan nan nan nan nan nan nan nan nan nan nan nan nan nan nan nan nan nan nan nan nan nan nan nan nan nan nan nan nan nan nan nan nan nan nan nan nan nan nan nan nan nan nan nan nan nan nan
4 6 6 12 nan nan 2 12 nan nan nan nan nan nan nan nan nan nan nan nan nan nan nan nan nan nan nan nan nan nan nan nan nan nan nan nan nan nan nan nan nan nan nan nan nan nan nan nan nan nan nan nan nan nan nan nan nan nan nan nan nan nan nan nan nan nan nan nan nan
13 9 9 11 nan nan 5 8 nan nan nan nan nan nan nan nan nan nan nan nan nan nan nan nan nan nan nan nan nan nan nan nan nan nan nan nan nan nan nan nan nan nan nan nan nan nan nan nan nan nan nan nan nan nan nan nan nan nan nan nan nan nan nan nan nan nan nan nan nan
10 18 18 11 0 0 0 nan nan nan nan nan nan nan nan nan nan nan nan nan nan nan nan nan nan nan nan nan nan nan nan nan nan nan nan nan nan nan nan nan nan nan nan nan nan nan nan nan nan nan nan nan nan nan nan nan nan nan nan nan nan nan nan nan nan nan nan nan nan
9 12 12 6 nan nan nan nan nan nan nan nan nan nan nan nan nan nan nan nan nan nan nan nan nan nan nan nan nan nan nan nan nan nan nan nan nan nan nan nan nan nan nan nan nan nan nan nan nan nan nan nan nan nan nan nan nan nan nan nan nan nan nan nan nan nan nan nan nan
15 9 9 nan nan nan nan nan nan nan nan nan nan nan nan nan nan nan nan nan nan nan nan nan nan nan nan nan nan nan nan nan nan nan nan nan nan nan nan nan nan nan nan nan nan nan nan nan nan nan nan nan nan nan nan nan nan nan nan nan nan nan nan nan nan nan nan nan nan
nan nan nan nan nan nan nan nan nan nan nan nan nan nan nan nan nan nan nan nan nan nan nan nan nan nan nan nan nan nan nan nan nan nan nan nan nan nan nan nan nan nan nan nan nan nan nan nan nan nan nan nan nan nan nan nan nan nan nan nan nan nan nan nan nan nan nan nan nan
nan nan nan nan nan nan nan nan nan nan nan nan nan nan nan nan nan nan nan nan nan nan nan nan nan nan nan nan nan nan nan nan nan nan nan nan nan nan nan nan nan nan nan nan nan nan nan nan nan nan nan nan nan nan nan nan nan nan nan nan nan nan nan nan nan nan nan nan nan
nan nan nan nan nan nan nan nan nan nan nan nan nan nan nan nan nan nan nan nan nan nan nan nan nan nan nan nan nan nan nan nan nan nan nan nan nan nan nan nan nan nan nan nan nan nan nan nan nan nan nan nan nan nan nan nan nan nan nan nan nan nan nan nan nan nan nan nan nan
nan nan nan nan nan nan nan nan nan nan nan nan nan nan nan nan nan nan nan nan nan nan nan nan nan nan nan nan nan nan nan nan nan nan nan nan nan nan nan nan nan nan nan nan nan nan nan nan nan nan nan nan nan nan nan nan nan nan nan nan nan nan nan nan nan nan nan nan nan
nan nan nan nan nan nan nan nan nan nan nan nan nan nan nan nan nan nan nan nan nan nan nan nan nan nan nan nan nan nan nan nan nan nan nan nan nan nan nan nan nan nan nan nan nan nan nan nan nan nan nan nan nan nan nan nan nan nan nan nan nan nan nan nan nan nan nan nan nan
nan nan nan nan nan nan nan nan nan nan nan nan nan nan nan nan nan nan nan nan nan nan nan nan nan nan nan nan nan nan nan nan nan nan nan nan nan nan nan nan nan nan nan nan nan nan nan nan nan nan nan nan nan nan nan nan nan nan nan nan nan nan nan nan nan nan nan nan nan
nan nan nan nan nan nan nan nan nan nan nan nan nan nan nan nan nan nan nan nan nan nan nan nan nan nan nan nan nan nan nan nan nan nan nan nan nan nan nan nan nan nan nan nan nan nan nan nan nan nan nan nan nan nan nan nan nan nan nan nan nan nan nan nan nan nan nan nan nan
nan nan nan nan nan nan nan nan nan nan nan nan nan nan nan nan nan nan nan nan nan nan nan nan nan nan nan nan nan nan nan nan nan nan nan nan nan nan nan nan nan nan nan nan nan nan nan nan nan nan nan nan nan nan nan nan nan nan nan nan nan nan nan nan nan nan nan nan nan
nan nan nan nan nan nan nan nan nan nan nan nan nan nan nan nan nan nan nan nan nan nan nan nan nan nan nan nan nan nan nan nan nan nan nan nan nan nan nan nan nan nan nan nan nan nan nan nan nan nan nan nan nan nan nan nan nan nan nan nan nan nan nan nan nan nan nan nan nan
nan nan nan nan nan nan nan nan nan nan nan nan nan nan nan nan nan nan nan nan nan nan nan nan nan nan nan nan nan nan nan nan nan nan nan nan nan nan nan nan nan nan nan nan nan nan nan nan nan nan nan nan nan nan nan nan nan nan nan nan nan nan nan nan nan nan nan nan nan
nan nan nan nan nan nan nan nan nan nan nan nan nan nan nan nan nan nan nan nan nan nan nan nan nan nan nan nan nan nan nan nan nan nan nan nan nan nan nan nan nan nan nan nan nan nan nan nan nan nan nan nan nan nan nan nan nan nan nan nan nan nan nan nan nan nan nan nan nan
nan nan nan nan nan nan nan nan nan nan nan nan nan nan nan nan nan nan nan nan nan nan nan nan nan nan nan nan nan nan nan nan nan nan nan nan nan nan nan nan nan nan nan nan nan nan nan nan nan nan nan nan nan nan nan nan nan nan nan nan nan nan nan nan nan nan nan nan nan
nan nan nan nan nan nan nan nan nan nan nan nan nan nan nan nan nan nan nan nan nan nan nan nan nan nan nan nan nan nan nan nan nan nan nan nan nan nan nan nan nan nan nan nan nan nan nan nan nan nan nan nan nan nan nan nan nan nan nan nan nan nan nan nan nan nan nan nan nan
nan nan nan nan nan nan nan nan nan nan nan nan nan nan nan nan nan nan nan nan nan nan nan nan nan nan nan nan nan nan nan nan nan nan nan nan nan nan nan nan nan nan nan nan nan nan nan nan nan nan nan nan nan nan nan nan nan nan nan nan nan nan nan nan nan nan nan nan nan
nan nan nan nan nan nan nan nan nan nan nan nan nan nan nan nan nan nan nan nan nan nan nan nan nan nan nan nan nan nan nan nan nan nan nan nan nan nan nan nan nan nan nan nan 0 0 0 nan nan nan nan nan nan nan nan nan nan nan nan nan nan nan nan nan nan nan nan nan nan
nan nan nan nan nan nan nan nan nan nan nan nan nan nan nan nan nan nan nan nan nan nan nan nan nan nan nan nan nan nan nan nan nan nan nan nan nan nan nan nan nan nan nan 1 4 4 5 3 0 0 nan nan nan nan nan nan nan nan nan nan nan nan nan nan nan nan nan nan nan
nan nan nan nan nan nan nan nan nan nan nan nan nan nan nan nan nan nan nan nan nan nan nan nan nan 0 0 nan nan nan nan nan nan nan nan nan nan nan nan nan nan nan nan 10 17 17 20 13 3 3 0 nan nan nan nan nan nan nan nan nan nan nan nan nan nan nan nan nan nan
nan nan nan nan nan nan nan nan nan nan nan nan nan nan nan nan nan nan nan nan nan nan nan nan nan nan nan nan nan nan nan nan nan nan nan nan nan nan nan nan nan 7 7 20 26 26 25 18 8 8 2 0 nan nan nan nan nan nan nan nan nan nan nan nan nan nan nan nan nan
nan nan nan nan nan nan nan nan nan nan nan nan nan nan nan nan nan nan nan nan nan nan nan nan nan nan nan nan nan nan nan nan nan nan nan nan nan nan nan 0 4 18 18 26 28 28 25 19 14 14 5 1 nan nan nan nan nan nan nan nan nan nan nan nan nan nan nan nan nan
nan nan nan nan nan nan nan nan nan nan nan nan nan nan nan nan nan nan nan nan nan nan nan nan nan nan nan nan nan nan nan nan nan nan nan nan nan 0 0 5 9 19 19 29 29 29 25 22 14 14 4 1 nan nan nan nan nan nan nan nan nan nan nan nan nan nan nan nan nan
nan nan nan nan nan nan nan nan nan nan nan nan nan nan nan nan nan nan nan nan nan nan nan nan nan nan nan nan nan nan nan nan nan nan nan 0 4 4 4 7 10 20 20 30 28 28 25 17 7 7 1 nan nan nan nan nan nan nan nan nan nan nan nan nan nan nan nan nan nan
nan nan nan nan nan nan nan nan nan nan nan nan nan nan nan nan nan nan nan nan nan nan nan nan nan nan nan nan nan nan nan nan nan nan nan 0 1 1 1 2 3 19 19 30 29 29 20 10 3 3 1 nan nan nan nan nan nan nan nan nan nan nan nan nan nan nan nan nan nan
nan nan nan nan nan nan nan nan nan nan nan nan nan nan nan nan nan nan nan nan nan nan nan nan nan nan nan nan nan nan nan nan nan 0 0 0 nan nan nan nan 3 23 23 32 26 26 17 8 4 4 2 0 nan nan nan nan nan nan nan nan nan nan nan nan nan nan nan nan nan
nan nan nan nan nan nan nan nan nan nan nan nan nan nan nan nan nan nan nan nan nan nan nan nan nan nan nan nan nan nan nan nan nan nan nan nan nan nan nan nan 3 26 26 29 24 24 18 12 8 8 4 1 nan nan nan nan nan nan nan nan nan nan nan nan nan nan nan nan nan
nan nan nan nan nan nan nan nan nan nan nan nan nan nan nan nan nan nan nan nan nan nan nan nan nan nan nan nan nan nan nan nan nan nan nan nan nan nan nan 0 3 25 25 28 23 23 19 14 8 8 5 0 nan nan nan nan nan nan nan nan nan nan nan nan nan nan nan nan nan
nan nan nan nan nan nan nan nan nan nan nan nan nan nan nan nan nan nan nan 0 nan nan nan nan nan nan nan nan nan nan nan nan nan nan nan nan nan nan nan nan 3 23 23 24 19 19 15 12 8 8 3 nan nan nan nan nan nan nan nan nan nan nan nan nan nan nan nan nan nan
nan nan nan nan nan nan nan nan nan nan nan nan nan nan nan nan nan nan nan nan nan nan nan nan nan nan nan nan nan nan nan nan nan nan nan nan nan nan nan nan 0 15 15 19 18 18 14 10 4 4 nan nan nan nan nan nan nan nan nan nan nan nan nan nan nan nan nan nan nan
nan nan nan nan nan nan nan nan nan nan nan nan nan nan nan nan nan nan nan nan nan nan nan nan nan nan nan nan nan nan nan nan nan nan nan nan nan nan nan nan nan 7 7 17 19 19 14 7 0 0 nan nan nan nan nan nan nan nan nan nan nan nan nan nan nan nan nan nan nan
nan nan nan nan nan nan nan nan nan nan nan nan nan nan nan nan nan nan nan nan nan nan nan nan nan nan nan nan nan nan nan nan 0 nan nan nan nan nan nan nan nan 2 2 16 17 17 12 3 nan nan nan nan nan nan nan nan nan nan nan nan nan nan nan nan nan nan nan nan nan
nan nan nan nan nan nan nan nan nan nan nan nan nan nan nan nan nan 0 0 nan nan nan nan nan nan nan nan 0 nan nan nan nan nan nan nan nan nan nan nan nan nan 0 0 16 14 14 9 1 nan nan nan nan nan nan nan nan nan nan nan nan nan nan nan nan nan nan nan nan nan
nan nan nan nan nan nan nan nan nan nan nan nan nan nan nan nan 0 nan nan nan nan nan nan nan nan 0 0 1 nan nan nan nan nan nan nan nan 0 1 1 nan nan nan nan 9 12 12 9 2 nan nan nan nan nan nan nan nan nan nan nan nan nan nan nan nan nan nan nan nan nan